Location: Prairie View Elementary School
(39.8322°N, 99.5698°W)
Time: 12:56:31
(UTC+00:00)

USA 234 - Pass Details

Date: 08 December 2019
Orbit: 1099 x 1108 km, 123.0° (Epoch: 20 January)

Event Time Altitude Azimuth Distance (km) Brightness Sun altitude
Rises 11:36:41 0° 43° (NE) 3,923 6.6 -24.3°
Reaches altitude 10° 11:39:19 10° 36° (NE) 2,964 5.8 -23.8°
Maximum altitude 11:45:18 40° 330° (NNW) 1,577 3.7 -22.6°
Enters shadow 11:46:26 37° 307° (NW) 1,648 3.7 -22.4°
